User: anonymous   Login
Location: Unspecified
(0.0000°N, 0.0000°E)
Time: 22:02:33
(UTC+01:00)
Language:

NOAA 12 - Orbit

View from above orbital plane
View from above orbital plane
View from above satellite
View from above satellite

Ground track
Ground track

The orbit data is extracted from the following two-line orbital elements,

1 21263U 91032A   17050.61565642 -.00000014  00000-0  12198-4 0  9998
2 21263  98.5750  77.2497 0012644 264.7137  95.2601 14.25834859339976
Epoch (UTC): 19 February 2017 14:46:32
Eccentricity: 0.0012644
inclination: 98.5750°
perigee height: 796 km
apogee height: 815 km
right ascension of ascending node: 77.2497°
argument of perigee: 264.7137°
revolutions per day: 14.25834859
mean anomaly at epoch: 95.2601°
orbit number at epoch: 33997

The dashed part of the orbit path shows where the satellite is in the earth's shadow,  

DLR